Lapse_Rate
4.2 4.0 4.1 4.2 4.2 4.3 4.5 4.7 4.8 4.8 4.7 5.0 4.6 5.1 5.4 5.7 6.1 6.2 6.3 6.0 6.0 6.0 5.9 5.8 5.6 5.7 5.5 5.8 6.5 5.8 6.2 6.3 6.4 6.6 6.7 6.6 6.7 6.8 7.1 7.1 7.1 6.8 7.0 7.0 6.9 6.8 7.3
4.4 4.1 4.0 4.0 4.2 4.2 4.1 4.3 4.4 4.6 4.8 4.7 4.7 4.7 5.0 5.4 5.7 6.1 6.4 6.2 6.0 5.8 5.8 5.7 5.4 5.6 5.5 5.8 6.8 5.7 5.8 5.9 6.2 6.5 6.6 6.5 6.6 6.6 6.8 7.0 6.8 6.8 6.9 7.1 7.1 7.1 7.4
4.5 4.3 4.1 4.1 4.1 4.2 4.4 4.2 4.2 4.3 4.4 4.7 4.7 4.4 4.8 5.0 5.3 5.7 6.3 6.4 6.2 5.8 5.6 5.6 5.3 5.4 5.5 6.4 6.2 6.2 5.9 6.2 5.9 6.4 6.4 6.4 6.8 6.6 6.8 7.2 7.0 7.0 6.9 7.5 7.6 7.4 7.8
4.6 4.4 4.3 4.2 4.2 4.3 4.2 4.4 4.3 4.2 4.2 4.2 4.8 4.7 4.6 4.9 4.6 5.3 5.6 6.1 6.0 6.1 5.8 5.4 5.3 5.1 5.7 6.5 5.8 6.0 6.2 6.2 6.2 6.4 6.1 6.3 6.8 7.0 7.1 6.9 7.0 6.9 7.1 7.1 7.9 7.6 7.8
4.6 4.6 4.5 4.3 4.3 4.4 4.3 4.2 4.2 4.3 4.3 4.1 4.1 4.2 4.3 4.5 4.8 4.7 5.6 5.5 5.5 5.8 5.7 5.3 5.3 4.9 5.6 6.6 6.1 6.0 6.1 6.4 6.3 6.4 6.2 6.4 6.6 6.6 6.6 6.4 6.6 6.7 6.6 7.0 7.8 7.9 7.9
4.6 4.6 4.6 4.5 4.5 4.5 4.5 4.5 4.3 4.3 4.3 4.4 4.1 4.1 3.6 4.2 4.7 4.9 5.3 4.9 5.4 5.9 5.5 5.1 5.2 4.7 5.1 6.9 6.5 5.9 6.1 6.4 6.0 6.3 6.1 6.2 6.4 6.4 6.3 6.2 6.3 6.7 6.7 7.3 7.8 8.2 7.7
4.3 4.3 4.6 4.7 4.7 4.7 4.7 4.6 4.5 4.3 4.4 4.6 4.3 4.3 4.2 3.8 4.7 4.9 5.1 4.9 4.6 5.1 5.6 6.1 5.9 5.9 5.1 5.8 6.3 6.1 6.2 6.4 5.9 5.7 5.7 6.3 6.2 6.1 6.9 7.4 7.4 7.2 7.1 7.4 7.8 7.6 7.3
4.5 4.6 4.5 4.6 4.9 4.9 5.0 4.9 4.8 4.6 4.5 4.7 4.7 4.3 4.3 4.3 4.6 5.4 4.6 4.1 4.6 5.4 5.6 5.9 5.7 5.5 5.6 5.5 6.2 6.2 6.1 5.8 5.8 5.6 5.7 6.1 6.0 6.8 7.2 7.0 6.9 6.9 6.9 7.1 7.8 7.8 7.1
4.8 4.9 4.8 4.8 4.9 5.1 5.2 5.2 5.1 5.0 4.9 4.7 4.8 4.5 4.2 4.3 5.1 5.0 4.6 4.2 4.7 4.3 4.6 5.1 5.9 5.7 6.1 5.9 6.2 6.8 6.4 6.4 6.1 6.0 5.8 6.4 6.6 6.8 6.8 6.6 6.3 6.6 6.8 7.3 7.5 8.0 7.3
5.2 5.1 5.2 5.2 5.2 5.4 5.7 5.9 6.0 6.0 5.9 5.6 5.3 5.4 4.4 4.5 4.5 4.6 4.9 4.9 4.3 4.6 4.1 4.0 4.6 5.7 5.5 5.6 5.5 6.0 6.2 6.1 5.5 5.5 5.7 5.7 6.5 6.5 6.8 6.9 6.9 6.7 7.3 7.4 7.1 7.3 7.2
5.6 5.5 5.5 5.5 5.6 5.8 6.1 6.6 7.1 7.3 7.3 7.2 6.7 6.4 5.3 4.4 4.6 4.7 5.3 5.1 4.2 4.4 4.7 4.1 4.4 4.8 5.8 6.0 5.4 6.2 5.7 5.6 5.8 5.7 5.5 5.7 5.9 6.7 6.3 6.7 7.0 6.5 7.3 7.1 7.1 7.2 7.4
5.9 5.9 5.9 6.0 6.0 6.2 6.4 7.2 7.7 7.9 7.9 7.9 7.7 7.4 6.4 5.4 4.6 4.9 4.9 5.1 4.8 5.4 6.0 4.5 4.5 4.5 5.1 5.8 5.3 5.6 5.9 5.8 6.0 5.8 6.3 6.5 6.5 6.9 6.8 7.0 7.3 7.2 7.1 7.2 7.3 7.2 6.1
6.3 6.4 6.4 6.4 6.5 6.6 7.0 7.3 7.9 8.0 7.9 7.9 7.9 8.0 7.2 6.3 5.1 5.1 5.0 4.9 4.9 5.5 6.0 4.2 4.0 4.4 5.2 5.5 5.1 5.0 5.8 5.6 5.2 4.9 4.7 5.1 5.7 6.2 6.4 6.5 7.0 6.9 6.8 6.7 6.4 5.9 5.3
7.1 7.2 7.3 7.3 7.2 7.1 7.2 7.5 7.8 8.0 8.0 8.0 8.0 7.7 7.6 6.7 6.0 5.3 5.0 5.3 5.5 5.6 6.3 4.7 4.9 4.7 4.5 5.1 6.0 5.1 5.9 5.7 5.6 6.1 5.7 5.1 5.2 5.7 6.2 6.2 6.5 6.7 6.6 6.4 5.2 4.7 5.9
7.6 7.7 7.7 7.7 7.5 7.4 7.4 7.4 7.8 7.9 8.1 8.1 7.7 7.5 7.2 7.1 6.4 5.7 5.7 6.7 5.2 5.6 6.5 5.7 5.5 5.4 4.3 5.0 5.7 5.6 5.9 6.4 6.5 5.4 5.5 5.5 5.4 6.3 6.9 6.6 6.7 6.6 6.8 6.6 6.8 6.4 5.5
7.7 7.9 7.9 7.7 7.6 7.3 7.1 7.4 7.7 8.0 8.1 8.0 7.8 7.4 7.4 7.5 7.0 6.5 6.6 5.9 6.3 6.1 5.9 6.3 7.0 6.3 5.4 4.8 5.2 5.1 6.0 6.0 6.3 6.6 6.1 6.2 6.1 6.1 6.9 7.1 7.1 7.2 7.2 6.9 6.9 5.9 5.6
7.8 7.7 7.6 7.5 7.2 7.1 7.1 7.3 7.8 8.0 8.2 7.5 7.2 7.0 7.2 7.5 7.3 6.7 6.1 5.4 5.9 6.6 6.2 6.0 6.4 6.5 5.6 5.5 5.6 5.4 5.6 5.8 6.3 6.3 6.2 6.5 6.6 6.6 7.1 6.9 6.6 6.7 6.9 6.8 6.8 6.6 5.4
7.7 7.4 7.2 7.0 6.8 7.1 7.1 7.5 7.9 8.0 7.6 7.2 7.0 6.7 7.3 7.5 7.4 7.0 6.3 6.1 6.4 6.5 5.6 6.2 5.9 6.1 5.9 5.7 5.5 5.7 5.5 5.8 6.1 6.3 5.9 6.0 6.4 6.7 6.9 7.2 7.2 7.1 7.2 7.2 6.8 6.1 6.4
7.4 7.1 6.9 6.9 7.1 7.3 7.4 7.6 7.8 7.7 7.3 7.0 6.6 6.8 7.2 7.5 7.1 7.2 6.8 6.4 6.7 6.6 6.5 6.1 6.1 6.0 5.6 6.1 6.8 6.5 5.6 6.0 6.6 6.7 6.1 6.1 6.7 6.7 7.0 7.1 7.2 6.9 7.0 7.3 6.8 6.9 6.6
6.7 6.4 6.6 6.7 7.1 7.5 7.5 7.6 7.6 7.2 7.1 6.9 6.7 7.1 6.5 7.1 7.1 7.6 6.7 6.8 6.3 6.8 6.4 6.0 5.6 5.3 6.0 6.7 6.5 6.0 5.8 6.3 6.5 6.5 7.0 6.8 7.0 7.1 6.5 6.3 6.7 6.6 6.5 6.8 6.7 6.4 6.0
6.5 6.5 6.9 7.3 7.5 7.6 7.5 7.4 7.2 7.0 7.0 6.6 6.4 6.9 7.3 6.5 7.1 7.7 7.0 6.6 6.7 6.4 5.7 6.2 5.6 5.5 5.8 6.3 6.0 6.0 6.3 6.4 6.5 6.8 6.6 6.6 6.4 6.2 6.0 7.2 7.3 7.2 7.0 7.1 6.9 6.7 6.7
6.4 6.6 6.9 7.7 7.7 7.5 7.2 7.1 6.9 6.8 6.7 6.6 6.7 6.9 6.8 7.4 7.7 7.6 6.4 6.4 6.6 7.6 6.8 6.7 5.9 5.6 5.6 5.9 6.2 6.2 6.2 6.3 6.3 6.4 5.7 6.4 6.0 6.5 6.2 6.3 6.8 7.0 6.9 6.6 6.6 6.7 6.5
6.3 6.4 6.7 7.3 7.5 7.4 6.9 7.0 6.9 6.6 6.6 6.8 6.9 6.6 7.0 7.1 7.4 7.6 6.8 6.1 6.6 6.4 6.4 6.8 6.9 5.6 6.0 6.1 6.8 6.2 6.4 6.5 6.2 6.4 6.3 5.6 5.7 5.9 5.3 5.9 6.2 6.2 5.7 6.3 6.1 6.3 6.3
6.0 6.2 6.8 7.3 7.3 7.2 7.0 6.9 6.8 6.7 6.9 7.2 7.4 7.0 7.2 7.0 8.1 8.4 7.5 6.8 6.5 6.7 6.0 6.0 6.2 5.9 6.1 6.2 6.3 5.9 6.0 5.7 5.7 5.9 5.8 5.6 5.6 5.5 5.2 5.9 5.7 4.9 5.4 6.0 6.3 5.8 6.2
6.2 6.3 6.4 7.0 7.0 7.4 7.4 7.1 7.0 6.7 7.1 7.4 7.1 6.6 6.9 7.3 8.0 8.1 7.4 6.6 6.4 6.3 6.2 5.8 6.0 6.4 6.0 6.0 6.0 6.0 5.9 5.9 5.7 5.5 5.4 5.6 5.8 5.7 5.6 5.7 5.6 5.1 5.1 5.8 6.1 6.0 6.3
6.2 6.4 6.6 7.0 7.0 7.2 7.1 7.4 7.0 6.9 7.1 7.4 7.2 6.8 7.2 7.2 7.6 7.6 7.5 7.0 6.7 6.2 6.0 6.0 6.3 6.1 6.1 6.2 6.0 6.2 6.0 5.9 5.6 5.4 5.6 5.1 5.3 5.4 5.2 5.5 5.6 5.2 5.8 6.3 6.9 5.9 6.2
6.1 6.5 6.7 6.9 6.8 6.9 7.0 7.4 7.1 6.7 7.3 7.1 7.0 6.8 6.9 6.8 7.1 7.4 7.3 7.3 6.8 6.5 6.2 6.2 6.1 5.5 6.5 6.2 5.8 6.1 5.9 6.0 6.0 5.7 5.9 5.6 5.1 5.2 5.3 5.5 6.0 5.7 6.4 6.7 6.0 5.6 6.9
6.1 6.5 6.9 6.9 6.7 6.9 6.8 6.9 7.1 7.2 7.3 7.0 6.8 6.8 6.6 7.0 7.2 7.3 7.2 7.1 6.8 6.6 6.7 6.4 6.5 6.4 6.0 6.2 6.4 6.1 6.2 6.0 6.0 6.2 6.0 5.8 5.7 5.3 5.2 5.3 5.5 6.5 6.7 6.5 7.1 6.8 6.7
6.1 6.3 6.6 6.4 6.5 6.8 7.0 6.9 6.9 6.8 6.9 7.0 6.9 6.9 7.1 7.2 7.2 7.2 7.1 7.0 6.7 6.7 6.6 6.6 6.4 6.2 6.2 6.2 6.3 6.4 6.1 6.2 5.9 6.1 6.4 5.7 5.7 5.7 5.5 5.2 5.6 6.0 6.5 6.0 6.1 6.9 7.1
Wind_Speed
13 14 13 12 15 16 17 18 18 16 12 11 9 11 18 21 22 22 22 22 20 18 16 13 11 10 8 3 9 6 5 7 6 2 4 2 3 4 4 3 5 4 4 2 2 5 4
13 14 13 13 13 15 16 18 20 19 15 13 11 9 13 19 24 22 22 22 21 18 16 12 9 7 2 9 8 13 8 4 6 3 4 2 5 4 5 4 2 4 1 2 2 3 3
13 13 13 12 13 14 14 16 19 20 19 16 13 11 10 16 18 18 22 22 21 19 16 11 7 2 5 16 4 9 8 5 3 3 4 4 0 3 3 5 4 2 3 6 3 3 5
14 15 14 14 13 14 15 14 17 20 21 20 17 14 10 12 18 19 22 22 20 18 14 10 3 2 7 7 24 15 16 13 7 7 2 2 2 2 2 5 6 1 4 1 6 5 7
16 16 16 14 13 14 15 14 14 16 21 21 20 16 14 11 13 17 17 22 20 15 11 7 2 4 8 8 8 18 8 8 4 4 2 1 3 1 3 3 4 3 3 4 8 9 4
18 17 17 16 15 14 16 17 17 16 16 21 21 19 17 15 12 15 13 19 14 9 5 6 5 2 7 8 7 8 10 10 5 3 1 1 3 2 2 4 9 6 4 4 7 3 8
21 18 17 17 17 18 17 19 18 17 16 18 22 20 19 16 16 12 7 4 9 5 12 10 9 7 7 16 3 6 9 9 6 4 7 4 4 8 13 13 3 5 3 3 5 5 4
20 19 18 18 19 18 19 19 18 18 18 17 21 22 19 17 14 13 13 6 18 6 6 22 16 20 26 3 7 7 10 11 11 14 7 3 14 12 11 5 7 8 6 7 11 9 6
21 20 19 19 19 19 20 22 18 18 20 19 18 23 22 17 10 6 12 20 11 6 4 8 27 16 9 6 10 12 14 13 17 11 16 15 4 17 10 7 9 9 11 7 9 1 2
22 20 20 21 20 20 22 22 21 21 22 21 22 22 22 13 2 8 13 13 9 7 4 10 11 11 21 4 8 15 8 12 6 19 9 13 16 6 11 13 13 14 10 12 8 3 4
21 21 21 21 21 20 21 22 24 23 24 24 24 22 24 27 3 9 9 11 6 3 7 10 24 6 19 21 7 15 13 8 18 10 11 12 13 22 19 17 14 8 9 9 5 3 3
19 20 21 20 20 21 22 24 25 25 25 25 25 24 26 14 10 11 13 11 3 7 8 7 16 20 15 23 16 8 18 3 6 7 18 18 8 12 9 16 14 7 4 4 3 3 7
19 20 21 21 22 23 24 24 25 26 25 25 26 25 24 12 17 18 8 8 7 8 4 6 15 24 32 21 28 11 24 19 13 11 18 7 23 10 3 6 14 7 9 0 2 3 11
20 19 21 23 24 24 25 25 25 27 26 27 28 24 25 14 19 6 10 8 11 11 10 6 9 23 26 24 24 22 23 23 23 22 12 16 11 25 9 15 8 15 15 6 9 5 10
19 21 21 22 24 25 25 27 27 27 27 27 25 11 12 15 16 7 6 15 10 8 16 9 12 21 18 20 15 28 21 31 30 25 15 15 16 6 15 6 20 8 11 12 5 3 3
20 22 23 24 25 25 25 27 26 26 26 25 10 9 15 16 18 8 8 11 7 10 11 13 19 18 20 28 18 27 29 28 29 31 18 5 5 9 20 7 14 13 7 5 2 5 5
20 23 24 25 25 24 26 25 26 26 26 26 9 8 7 17 11 7 12 6 9 16 11 9 9 12 21 23 25 31 22 12 30 28 25 5 5 5 11 18 21 5 9 5 5 7 8
21 23 24 24 24 25 23 24 24 25 26 21 8 9 7 14 11 5 11 8 5 17 13 11 3 7 14 21 25 23 29 36 21 24 33 23 4 5 21 23 23 23 24 25 11 6 9
22 23 24 24 24 24 23 23 24 25 27 12 7 2 9 14 11 12 3 8 10 13 27 8 7 13 9 16 17 15 24 20 7 26 26 21 7 2 4 6 7 26 19 11 4 4 14
23 22 24 25 24 24 23 23 24 21 33 9 5 5 5 7 2 16 11 10 12 14 16 22 7 12 15 13 7 7 18 10 19 15 19 18 16 20 21 18 9 12 23 22 20 13 7
22 23 24 27 26 24 22 20 20 26 35 7 4 5 4 11 12 16 13 5 15 12 20 15 14 18 18 11 14 16 3 1 10 16 12 16 23 23 28 12 10 16 19 28 27 29 20
24 24 26 28 29 23 20 18 18 28 34 3 5 5 3 10 7 17 15 14 10 14 8 18 20 22 13 18 18 13 14 9 8 9 22 16 13 21 24 12 20 14 10 28 33 28 27
25 26 27 29 26 23 21 17 24 29 24 3 3 1 6 10 12 10 13 11 21 17 9 14 31 12 13 16 9 8 15 2 5 4 8 14 17 4 26 19 8 17 35 16 18 28 28
25 27 28 30 30 21 20 17 28 31 26 3 3 3 5 4 9 15 12 18 11 12 20 8 12 22 11 5 6 5 4 5 6 8 4 6 16 11 4 7 20 19 9 29 22 18 20
26 27 30 30 31 19 16 16 28 33 18 4 1 3 3 4 5 8 9 13 14 15 14 12 14 10 10 10 2 3 1 1 8 12 16 9 10 3 7 14 5 12 10 22 18 30 13
28 29 30 30 29 2 14 7 34 33 17 4 0 2 4 5 2 6 3 5 4 5 2 6 7 11 4 5 7 6 5 5 6 4 18 19 16 7 3 8 15 4 13 17 11 20 10
28 29 29 28 22 2 13 19 12 30 20 3 2 3 4 4 2 3 4 6 4 3 1 2 0 6 9 3 9 5 7 9 7 6 6 15 13 15 7 5 6 7 6 15 14 7 10
28 28 30 25 13 4 11 19 23 26 24 4 1 4 4 3 2 4 2 5 3 2 4 2 1 4 3 5 4 4 4 7 5 6 7 5 8 5 3 7 10 5 6 14 5 3 4
27 27 30 18 10 2 11 11 18 22 26 6 3 3 3 4 3 0 2 2 1 6 4 4 2 3 4 1 4 2 4 4 5 5 7 5 6 6 6 5 2 3 3 5 6 7 3
Wind_Direction
293 301 304 307 305 293 283 280 276 270 259 268 276 309 327 334 247 226 222 227 234 241 252 263 285 324 332 235 242 294 247 257 295 258 240 246 279 202 237 242 309 202 248 174 59 185 194
283 286 295 300 304 305 297 285 276 270 264 252 265 274 303 326 343 227 218 222 229 230 239 255 274 326 235 247 250 261 221 265 252 254 263 210 238 235 268 258 198 309 241 310 299 195 252
281 286 287 290 300 299 296 299 281 267 261 254 251 256 279 309 311 301 212 217 226 220 223 237 260 274 244 236 253 331 341 276 251 249 250 334 266 117 4 299 313 220 281 339 247 225 234
271 276 279 286 292 299 297 298 294 269 258 253 253 249 256 278 312 330 214 210 222 216 212 219 240 266 245 252 259 273 280 280 285 253 218 359 13 118 172 304 337 257 75 84 279 205 244
265 270 274 277 283 290 292 293 299 291 267 254 247 244 240 254 300 315 241 204 210 202 195 188 193 203 265 267 225 243 201 234 261 243 275 57 47 176 1 96 358 333 221 199 303 211 175
261 265 270 276 283 283 289 287 288 287 280 263 246 247 239 237 257 294 240 185 168 137 187 184 248 272 255 238 217 225 196 202 207 199 16 105 57 136 55 121 213 209 210 232 234 257 201
262 261 266 273 279 280 281 285 284 287 288 276 254 244 238 229 234 274 174 169 132 205 202 201 186 224 276 223 299 221 185 165 170 147 170 208 168 196 204 205 165 189 197 243 267 248 200
265 264 262 267 275 275 281 280 278 280 277 278 266 250 239 230 224 243 209 235 188 160 207 228 247 222 256 349 321 248 157 175 180 204 169 227 225 211 217 196 213 254 261 262 285 246 180
263 263 263 267 271 273 280 277 273 281 275 270 269 257 240 225 218 256 224 223 297 315 253 193 215 218 220 197 236 250 192 186 197 185 194 209 228 188 206 210 212 232 225 235 229 302 293
265 263 264 268 272 273 280 274 273 275 269 265 261 259 236 190 242 225 214 212 240 310 255 219 190 231 211 192 256 210 220 178 199 208 175 236 231 199 209 225 190 223 199 231 232 268 237
265 267 266 269 272 273 275 271 270 270 266 262 257 258 233 190 230 195 224 166 191 217 228 212 198 181 179 196 116 209 200 174 199 169 168 216 181 202 223 219 207 221 184 199 169 162 339
269 270 269 272 273 273 272 270 266 268 261 255 253 252 229 204 221 235 174 153 116 233 227 243 164 178 153 199 206 148 188 216 173 201 216 216 180 196 216 208 204 177 79 54 62 113 255
271 273 275 276 273 272 269 270 264 267 256 250 246 247 220 200 225 212 206 169 208 208 120 226 182 172 188 187 197 177 187 191 178 189 220 203 239 251 195 164 215 156 128 242 254 203 242
274 275 277 274 273 273 273 272 263 264 253 250 242 241 220 208 213 162 188 211 218 186 192 255 197 180 190 174 194 198 183 197 208 196 192 205 215 215 200 210 173 193 183 176 182 199 246
285 283 279 280 280 277 275 273 264 259 253 250 234 232 216 206 195 200 220 223 204 189 207 190 206 174 196 192 174 200 193 198 199 198 194 199 227 177 202 185 187 194 197 188 102 350 50
291 288 286 285 281 274 276 276 259 255 255 241 219 219 213 187 173 197 234 233 194 183 266 226 191 185 187 195 188 190 199 206 207 203 200 206 221 200 200 150 212 198 149 159 139 186 247
295 292 289 288 283 277 281 270 262 251 250 221 203 220 187 151 156 209 238 217 206 227 214 227 237 194 198 187 195 190 201 196 203 201 206 207 162 228 153 197 191 133 188 188 187 181 204
303 299 292 290 285 280 286 277 267 255 237 194 186 219 182 149 188 202 228 180 264 228 217 259 245 241 204 187 193 196 208 204 197 192 197 204 159 182 204 212 203 201 201 196 204 210 226
310 306 302 295 288 286 278 277 274 255 201 174 179 170 184 159 182 212 272 212 207 230 228 217 236 223 247 192 200 194 215 214 211 190 194 192 204 94 3 296 234 212 208 198 159 107 215
309 307 304 299 292 287 280 276 279 217 180 150 146 175 167 164 167 196 196 211 198 231 238 214 235 254 231 235 168 214 228 192 231 204 195 187 211 214 212 216 156 197 208 206 203 216 183
314 309 306 303 298 293 283 281 267 189 175 134 162 186 177 170 201 194 191 214 211 221 210 201 221 241 219 207 211 234 278 252 207 206 202 197 216 219 238 239 199 206 210 209 212 220 206
319 315 312 310 306 290 279 272 221 181 176 123 153 156 161 179 160 195 196 209 226 203 220 219 219 210 227 214 206 187 218 217 228 194 209 219 227 224 242 227 242 251 242 217 218 219 230
325 319 312 317 303 290 277 258 194 184 166 132 196 180 139 139 166 176 203 195 214 216 269 262 220 199 220 226 228 221 203 119 163 115 182 212 214 168 235 220 223 245 238 237 227 223 225
324 325 320 326 318 284 265 232 187 182 176 114 198 116 126 163 168 197 189 208 211 196 225 261 252 211 206 168 102 47 54 190 176 174 196 221 207 201 229 170 225 249 227 234 242 237 228
330 330 330 332 333 294 226 203 181 173 157 146 230 123 118 133 170 159 152 183 220 231 238 244 273 275 275 250 162 142 57 308 226 231 210 242 239 188 210 207 317 229 209 201 206 239 218
333 333 335 338 341 18 114 74 177 163 139 109 1 132 104 112 244 109 150 144 177 183 202 240 250 261 319 207 218 211 182 141 205 233 204 200 219 214 158 199 211 268 177 198 184 242 173
339 338 336 339 340 289 120 122 136 152 166 90 61 85 86 107 278 129 150 192 163 158 200 229 222 207 164 208 208 195 204 177 174 188 169 192 196 215 197 232 275 251 238 144 173 236 165
344 341 342 340 340 325 158 153 160 173 186 93 94 38 112 108 343 31 34 140 122 149 152 341 5 316 142 222 226 168 191 203 149 175 164 161 148 184 145 201 251 220 181 178 161 85 136
348 349 350 360 356 217 167 166 171 180 190 141 80 19 65 80 192 263 272 275 232 174 144 144 213 51 290 231 224 146 186 175 173 207 166 183 181 150 188 203 260 282 219 153 127 138 203